Regional Weather Roundup
Issued by NWS Wakefield, VA

Home | Current Version | Previous Version | Text Only | Print | Product List | Glossary On
Versions: 1 2 3 4 5 6 7 8 9 10 11 12 13 14 15 16 17 18 19 20 21 22 23 24 25 26 27 28 29 30 31 32 33 34 35 36 37 38 39 40 41 42 43 44 45 46 47 48 49 50
000
ASUS41 KAKQ 051110
RWRAKQ

REGIONAL WEATHER ROUNDUP
NATIONAL WEATHER SERVICE WAKEFIELD VA
600 AM EST THU MAR 05 2015

Note: "fair" indicates few or no clouds below 12,000 feet with no
significant weather and/or obstructions to visibility. * = Denotes
station may not report precipitation (e.g., rain,snow,etc.),
thunder or fog.

VAZ042-051-052>054-056-051200-
NORTHERN VIRGINIA

CITY           SKY/WX    TMP DP  RH WIND       PRES   REMARKS
WASH NATIONAL  LGT RAIN  39  33  79 N12       30.05R FOG
DULLES         LGT RAIN  34  31  88 N14G22    30.04R WCI  25
FORT BELVOIR   DRIZZLE   37  33  88 N6        30.05R
QUANTICO       LGT RAIN  37  34  89 N13       30.07R FOG
FREDERICKSBRG* DRIZZLE   38  38 100 N9        30.03R
STAFFORD*      DRIZZLE   36  32  85 N6        30.08R
WARRENTON      DRIZZLE   37  37 100 N5        30.05R
CULPEPER*      DRIZZLE   37  36  93 N10       30.05R
MANASSAS*      CLOUDY    36  34  93 N13G18    30.06R
LEESBURG*      LGT SNOW  34  34 100 N17       30.07R WCI  23
WINCHESTER     LGT SNOW  34  30  86 NW7       30.06R
FRONT ROYAL*   CLOUDY    32  32 100 N3        30.05R
LURAY*         RAIN      36  36 100 N13       30.03R
$$

VAZ048-049-060>072-079>083-051200-
CENTRAL AND SOUTH CENTRAL VIRGINIA

CITY           SKY/WX    TMP DP  RH WIND       PRES   REMARKS
RICHMOND       LGT RAIN  40  36  86 NE20G32   30.00R FOG
CHESTERFIELD*  CLOUDY    41  28  60 NE9       30.00R
PETERSBURG*    CLOUDY    43  42  95 NE14G20   29.98R FOG
HANOVER        CLOUDY    38  36  92 VRB7      30.01R FOG
TAPPAHANNOCK*  DRIZZLE   39  37  92 N9G16     30.02R
QUINTON*       CLOUDY    39  38  95 N8G18     30.00R
CHARLOTTSVILLE LGT RAIN  38  37  97 NE8       29.99R FOG
GORDONSVILLE*  CLOUDY    36  34  95 NE9       30.01R
ORANGE*        RAIN      37  36  93 N10G20    30.03R
LOUISA*        DRIZZLE   37  36  93 NE9       30.00R
BUMPASS*       CLOUDY    37  35  92 N6        30.00R
FARMVILLE*     RAIN      46  46 100 NE10G17   29.83F
CREWE*         CLOUDY    44  43  95 NE10G16   29.95R
FORT PICKETT*  CLOUDY    45  44  97 NE14      29.94R
CHASE CITY*    CLOUDY    53  53 100 NE7       29.90R
CLARKSVILLE*   CLOUDY    52  50  93 NE3       29.89R
SOUTH HILL*    CLOUDY    50  49  96 NE9G16    29.97R
LAWRENCEVILLE* CLOUDY    47  46  98 NE10G17   29.93R
EMPORIA*       LGT SNOW  46  45  93 N9G17     29.97R
$$

VAZ088>098-051200-
SOUTHEAST VIRGINIA

CITY           SKY/WX    TMP DP  RH WIND       PRES   REMARKS
NORFOLK        RAIN      39  37  92 N15G23    29.97R FOG
VIRGINIA BEACH DRIZZLE   43  40  89 N8        29.97R FOG
NORFOLK NAVAL  RAIN      45  40  82 N21G28    29.99R
WEST POINT*    CLOUDY    45  42  91 N5        30.02R
SALUDA*        CLOUDY    40  39  95 N5        30.00R
NEWPORT NEWS   LGT RAIN  46  41  82 NE10G21   29.99R
LANGLEY AFB    LGT RAIN  43  42  96 N10G20    29.98R FOG
FORT EUSTIS    LGT RAIN  45 N/A N/A VRB3      29.98R
WILLIAMSBURG*  CLOUDY    46  45  93 NE6       30.00R
HR EXEC AP*    CLOUDY    45  43  93 N9G20     30.00R
FRANKLIN*      LGT RAIN  46  45  97 NE12      29.96R
WAKEFIELD      LGT RAIN  45  42  89 NE9       29.98R
$$

VAZ020-022-025-037-045-051200-
WEST CENTRAL AND SOUTHWEST VIRGINIA

CITY           SKY/WX    TMP DP  RH WIND       PRES   REMARKS
STAUNTON*      RAIN      35  33  93 NE12      30.01R
WAYNESBORO*    CLOUDY    35  34  97 N9        29.97R
HOT SPRINGS VA MIX PCPN  29  29 100 NW13      29.88R VSB<1/4 WCI  19
LYNCHBURG      LGT RAIN  45  45 100 N8        29.95R FOG
DANVILLE       CLOUDY    52  49  89 NE9       29.90R
SOUTH BOSTON*  CLOUDY    51  50  95 N3        29.91R
MARTINSVILLE   RAIN      49  49 100 N5        29.93R
ROANOKE        CLOUDY    41  38  89 NE9       29.95R
BLACKSBURG     DRIZZLE   35  33  95 W6        29.98R
DUBLIN*        MIX PCPN  34  33  96 NW6       29.98R
MARION*        RAIN      36  33  89 W9        30.00R
HILLSVILLE*    MIX PCPN  38  38 100 NE6       29.89S
RICHLANDS*     LGT SNOW  31  29  94 N5        29.98F
WISE*          LGT SNOW  30  30 100 N7        30.01R
ABINGDON*      RAIN      36  35  96 NW5       30.00R
$$

MDZ021>025-VAZ099-100-051200-
SOUTHERN MARYLAND AND THE DELMARVA PENINSULA

CITY           SKY/WX    TMP DP  RH WIND       PRES   REMARKS
PATUXENT RIVER LGT RAIN  38  35  89 N14       30.02R FOG
BAY BRIDGE APT DRIZZLE   34  34 100 N9G16     30.05R
LEONARDTOWN    CLOUDY    37  34  87 CALM      30.03S
DOVER          LGT RAIN  36  36 100 NW12      30.02R
GEORGETOWN     MIX PCPN  37  34  89 N9        30.00S FOG
EASTON         LGT RAIN  37  37 100 N9        30.08R FOG
CAMBRIDGE      CLOUDY    37  36  93 N8        30.02R
SALISBURY      LGT RAIN  40  36  86 N13       30.00R FOG
OCEAN CITY     LGT RAIN  38  37  97 N13       30.00R FOG
WALLOPS ISLAND LGT RAIN  39  38  96 N17G26    30.00R FOG
ACCOMACK*      DRIZZLE   41  39  93 N15G24    29.99R
$$

NCZ012>017-030>032-051200-
NORTH CENTRAL AND EASTERN NORTH CAROLINA

CITY           SKY/WX    TMP DP  RH WIND       PRES   REMARKS
ROANOKE RAPIDS RAIN      54  52  94 NE5       29.90R
RALEIGH        CLOUDY    63  57  82 SW8       29.88R
ELIZABETH CITY CLOUDY    51  49  92 N8        29.92R
AHOSKIE*       CLOUDY    52  51  97 N6        29.92R FOG
EDENTON*       CLOUDY    62  60  94 SW6       29.90S
CURRITUCK*     CLOUDY    49  47  93 N9        29.94R
KILL DEVIL HLS PTCLDY    63  63 100 SW12G21   29.89S
MANTEO         MOCLDY    61  61 100 SW18      29.91F
CAPE HATTERAS  CLOUDY    59  59 100 SW13      29.96S FOG
TARBORO*       CLOUDY    66  60  81 S9        29.90R
GOLDSBORO      PTCLDY    65  65  99 S13       29.88S
WASHINGTON     CLEAR     66  62  89 SW7       29.91S
GREENVILLE     CLEAR     64  63  94 SW12      29.92R
NEW BERN       PTCLDY    66  62  87 SW13      29.95R
WILMINGTON     CLEAR     63  60  90 S10       29.98R
$$

VAZ048-051200-
ELSEWHERE

CITY           SKY/WX    TMP DP  RH WIND       PRES   REMARKS
HARRISBURG PA  LGT SNOW  32  28  85 NW7       30.06R
BALTIMORE      DRIZZLE   35  32  88 N6        30.04R FOG
ANNAPOLIS      MIX PCPN  36  32  85 N9        30.04R FOG
ANDREWS AFB    DRIZZLE   36  36 100 N9        30.03R
PHILADELPHIA   LGT SNOW  34  32  92 N7        30.03S FOG
HENDERSON NC   DRIZZLE   52  50  95 CALM      29.90R
GREENSBORO     LGT RAIN  52  50  93 NE9       29.88R FOG
ROCKY MOUNT    CLOUDY    64  61  90 S8        29.88R
$$

VAZ100-051200-
MARINE

STATION/POSITION TIME  TEMP    WIND        PRES    WAVE   SWELL
                       AIR SEA DIR/SP/G            HT/PER HT/PER
                 (UTC) (F)     (DEG/KT/KT) (MB)    (FT/S) (FT/S)
BRANDYWINE LGT   1100          340/ 13/ 15   N/A
CAPE MAY NJ      1100   35 35  330/  6/ 12 1015.6F
LEWES DE         1100   35 32  330/ 12/ 13 1016.0S
15NM E FENWICK I 1100   36 36              1015.0R   3/ 6
OCEAN-CITY-INLET 1100   38 33   10/ 16/ 20 1015.0F
WACHAPREAGUE VA  1100   43 41  340/  4/ 11 1015.4R
THOMAS POINT MD  1100   35 32  360/ 12/ 13 1018.2R
COVE POINT MD    1100   34      20/ 13/ 15 1016.5R
SOLOMONS ISLAND  1100      33                N/A
BISHOPS HEAD MD  1100   37 35  360/  9/ 14 1015.9R
CAMBRIDGE MD     1100   37 32   10/ 12/ 13 1016.4S
LEWISETTA VA     1100   38 34   20/  4/  8 1016.0S
RAPPAHANNOCK LGT 1100          360/ 21/ 23 1015.8R
STINGRAY PT      1100   36      20/ 12/ 14   N/A
YORK RVR RNG VA  1100   40      20/ 18/ 21 1014.6R
YORKTOWN VA      1100   42 35   40/  9/ 12 1015.2R
DOMINION TERM VA 1100   44      10/  9/ 16 1014.9R
KIPTOPEKE VA     1100      40   10/  8/ 12   N/A
CHES BAY BRIDGE  1100   36 34  330/ 14/ 19 1014.6R
CAPE HENRY VA    1100   36     320/ 10/ 14 1013.7R
CHESAPEAKE LGHT  1000   41      40/ 15/ 16 1013.8R
WILLOUBY STN VA  1100   42      10/ 19/ 25 1015.6R
S CRANEY ISL VA  1100          360/ 14/ 19 1014.8R
CAPE HENRY BUOY  1100      36                N/A     3/ 6
1ST LANDING BUOY 1100   36     350/ 14/ 19 1014.2R
OFFSHORE WE BUOY 1100      37                N/A     4/ 7   3/ 7
64NM E OF VA BCH 1100   50 51  290/  6/  8 1012.6R   5/ 6   5/ 6
DUCK PIER NC     1100      35  350/ 11/ 19 1012.3R
44100 DUCK FRF   1000      37                N/A     4/ 6
44056 DUCK FRF   1100      36                N/A     3/ 7
OREGON INLET NC  1100   53 49  200/ 19/ 23 1013.4F
HATTERAS NC      1100   60 49  220/ 11/ 18 1014.9R
CAPE LOOKOUT NC  1100   61     210/ 14/ 21 1014.9S
$$


USA.gov is the U.S. government's official web portal to all federal, state and local government web resources and services.